| time (UTC) | temp C | wind direction | speed KPH | gust KPH | rain 1hr cm | rain 24hr cm | rain mn cm | humidity % | barometer mb |
| 20260831232020 | 21 | 0.0 | 0.0 | 0.00 | 0.00 | 0.00 | 71 | 1017.9 | |
| 20260831231520 | 21 | 0.0 | 0.0 | 0.00 | 0.00 | 0.00 | 67 | 1017.9 | |
| 20260831231019 | 21 | 0.0 | 0.0 | 0.00 | 0.00 | 0.00 | 66 | 1017.9 | |
| 20260831230519 | 21 | 0.0 | 0.0 | 0.00 | 0.00 | 0.00 | 65 | 1017.9 | |
| 20260831230019 | 21 | 0.0 | 0.0 | 0.00 | 0.00 | 0.00 | 64 | 1018.1 | |
| 20260831225520 | 21 | 0.0 | 0.0 | 0.00 | 0.00 | 0.00 | 63 | 1018.0 | |
| 20260831225020 | 21 | 0.0 | 0.0 | 0.00 | 0.00 | 0.00 | 64 | 1017.9 | |
| 20260831224522 | 22 | 0.0 | 0.0 | 0.00 | 0.00 | 0.00 | 65 | 1018.0 | |
| 20260831224020 | 22 | 0.0 | 0.0 | 0.00 | 0.00 | 0.00 | 64 | 1017.9 | |
| 20260831223540 | 22 | 0.0 | 0.0 | 0.00 | 0.00 | 0.00 | 64 | 1018.1 | |
| 20260831223020 | 22 | 188 | 0.0 | 1.6 | 0.00 | 0.00 | 0.00 | 61 | 1018.1 |
| 20260831222539 | 23 | 188 | 0.0 | 3.2 | 0.00 | 0.00 | 0.00 | 60 | 1018.1 |
| 20260831222019 | 23 | 196 | 1.6 | 9.7 | 0.00 | 0.00 | 0.00 | 58 | 1018.0 |
| 20260831221519 | 22 | 242 | 0.0 | 3.2 | 0.00 | 0.00 | 0.00 | 58 | 1018.1 |
| 20260831221020 | 23 | 0.0 | 1.6 | 0.00 | 0.00 | 0.00 | 60 | 1018.0 | |
| 20260831220540 | 23 | 228 | 0.0 | 1.6 | 0.00 | 0.00 | 0.00 | 58 | 1018.0 |
| 20260831220040 | 23 | 220 | 0.0 | 3.2 | 0.00 | 0.00 | 0.00 | 55 | 1018.0 |
| 20260831215520 | 23 | 183 | 1.6 | 6.4 | 0.00 | 0.00 | 0.00 | 54 | 1017.8 |
| 20260831215020 | 24 | 184 | 1.6 | 4.8 | 0.00 | 0.00 | 0.00 | 53 | 1017.9 |
| 20260831214519 | 24 | 223 | 1.6 | 4.8 | 0.00 | 0.00 | 0.00 | 52 | 1017.8 |
| 20260831214019 | 24 | 262 | 1.6 | 4.8 | 0.00 | 0.00 | 0.00 | 53 | 1017.9 |
| 20260831213521 | 24 | 196 | 1.6 | 6.4 | 0.00 | 0.00 | 0.00 | 51 | 1018.0 |
| 20260831213041 | 24 | 175 | 4.8 | 11.3 | 0.00 | 0.00 | 0.00 | 51 | 1018.0 |
| 20260831212521 | 24 | 282 | 1.6 | 11.3 | 0.00 | 0.00 | 0.00 | 50 | 1018.1 |
| 20260831212020 | 24 | 221 | 3.2 | 6.4 | 0.00 | 0.00 | 0.00 | 52 | 1018.1 |
| 20260831211540 | 24 | 157 | 1.6 | 3.2 | 0.00 | 0.00 | 0.00 | 53 | 1018.1 |
| 20260831211020 | 24 | 253 | 0.0 | 3.2 | 0.00 | 0.00 | 0.00 | 54 | 1018.0 |
| 20260831210519 | 24 | 186 | 1.6 | 3.2 | 0.00 | 0.00 | 0.00 | 52 | 1018.1 |
| 20260831210019 | 24 | 260 | 0.0 | 3.2 | 0.00 | 0.00 | 0.00 | 53 | 1018.1 |
| 20260831205519 | 24 | 250 | 0.0 | 3.2 | 0.00 | 0.00 | 0.00 | 50 | 1018.1 |
| 20260831205021 | 24 | 248 | 0.0 | 3.2 | 0.00 | 0.00 | 0.00 | 50 | 1018.1 |
| 20260831204520 | 25 | 286 | 0.0 | 6.4 | 0.00 | 0.00 | 0.00 | 50 | 1018.1 |
| 20260831204020 | 24 | 186 | 1.6 | 12.9 | 0.00 | 0.00 | 0.00 | 47 | 1018.1 |
| 20260831203520 | 24 | 213 | 1.6 | 3.2 | 0.00 | 0.00 | 0.00 | 48 | 1018.2 |
| 20260831203020 | 24 | 320 | 1.6 | 4.8 | 0.00 | 0.00 | 0.00 | 48 | 1018.1 |
| 20260831202519 | 25 | 277 | 3.2 | 11.3 | 0.00 | 0.00 | 0.00 | 48 | 1018.0 |
| 20260831202040 | 25 | 184 | 1.6 | 6.4 | 0.00 | 0.00 | 0.00 | 47 | 1017.9 |
| 20260831201519 | 25 | 178 | 1.6 | 9.7 | 0.00 | 0.00 | 0.00 | 46 | 1018.1 |
| 20260831201019 | 25 | 204 | 1.6 | 4.8 | 0.00 | 0.00 | 0.00 | 45 | 1018.0 |
| 20260831200520 | 25 | 283 | 1.6 | 6.4 | 0.00 | 0.00 | 0.00 | 45 | 1018.1 |
| 20260831200020 | 25 | 188 | 1.6 | 6.4 | 0.00 | 0.00 | 0.00 | 45 | 1018.2 |
| 20260831195540 | 25 | 283 | 3.2 | 6.4 | 0.00 | 0.00 | 0.00 | 45 | 1018.2 |
| 20260831195020 | 25 | 57 | 1.6 | 9.7 | 0.00 | 0.00 | 0.00 | 45 | 1018.2 |
| 20260831194520 | 25 | 185 | 1.6 | 6.4 | 0.00 | 0.00 | 0.00 | 45 | 1018.3 |
| 20260831194020 | 25 | 354 | 1.6 | 6.4 | 0.00 | 0.00 | 0.00 | 44 | 1018.3 |
| 20260831193519 | 25 | 204 | 3.2 | 11.3 | 0.00 | 0.00 | 0.00 | 45 | 1018.4 |
| 20260831193019 | 25 | 3 | 1.6 | 4.8 | 0.00 | 0.00 | 0.00 | 45 | 1018.4 |
| 20260831192521 | 25 | 316 | 1.6 | 6.4 | 0.00 | 0.00 | 0.00 | 45 | 1018.5 |
| 20260831192020 | 25 | 260 | 1.6 | 6.4 | 0.00 | 0.00 | 0.00 | 47 | 1018.6 |
| 20260831191518 | 25 | 205 | 1.6 | 9.7 | 0.00 | 0.00 | 0.00 | 47 | 1018.5 |
| 20260831191040 | 25 | 192 | 3.2 | 9.7 | 0.00 | 0.00 | 0.00 | 46 | 1018.5 |
| 20260831190540 | 25 | 128 | 1.6 | 4.8 | 0.00 | 0.00 | 0.00 | 46 | 1018.6 |
| 20260831190039 | 25 | 77 | 0.0 | 4.8 | 0.00 | 0.00 | 0.00 | 44 | 1018.6 |
| 20260831185539 | 25 | 166 | 1.6 | 4.8 | 0.00 | 0.00 | 0.00 | 44 | 1018.6 |
| 20260831185039 | 25 | 332 | 1.6 | 4.8 | 0.00 | 0.00 | 0.00 | 45 | 1018.8 |
| 20260831184519 | 25 | 345 | 1.6 | 3.2 | 0.00 | 0.00 | 0.00 | 45 | 1018.8 |
| 20260831184041 | 25 | 18 | 0.0 | 1.6 | 0.00 | 0.00 | 0.00 | 46 | 1019.0 |
| 20260831183540 | 25 | 3 | 1.6 | 4.8 | 0.00 | 0.00 | 0.00 | 48 | 1019.0 |
| 20260831183022 | 25 | 337 | 1.6 | 4.8 | 0.00 | 0.00 | 0.00 | 44 | 1019.0 |
| 20260831182519 | 25 | 291 | 1.6 | 4.8 | 0.00 | 0.00 | 0.00 | 46 | 1019.1 |
| 20260831182019 | 25 | 44 | 0.0 | 4.8 | 0.00 | 0.00 | 0.00 | 41 | 1019.1 |
| 20260831181519 | 25 | 247 | 1.6 | 4.8 | 0.00 | 0.00 | 0.00 | 45 | 1019.1 |
| 20260831181019 | 25 | 44 | 1.6 | 4.8 | 0.00 | 0.00 | 0.00 | 44 | 1019.2 |
| 20260831180521 | 25 | 283 | 1.6 | 6.4 | 0.00 | 0.00 | 0.00 | 46 | 1019.1 |
| 20260831180020 | 25 | 159 | 1.6 | 4.8 | 0.00 | 0.00 | 0.00 | 44 | 1019.0 |
| 20260831175519 | 25 | 288 | 1.6 | 4.8 | 0.00 | 0.00 | 0.00 | 43 | 1019.1 |
| 20260831175019 | 25 | 181 | 3.2 | 6.4 | 0.00 | 0.00 | 0.00 | 43 | 1019.1 |
| 20260831174519 | 25 | 174 | 1.6 | 4.8 | 0.00 | 0.00 | 0.00 | 41 | 1019.2 |
| 20260831174021 | 25 | 85 | 1.6 | 6.4 | 0.00 | 0.00 | 0.00 | 42 | 1019.2 |
| 20260831173540 | 25 | 152 | 1.6 | 6.4 | 0.00 | 0.00 | 0.00 | 42 | 1019.3 |
| 20260831173020 | 25 | 82 | 1.6 | 4.8 | 0.00 | 0.00 | 0.00 | 42 | 1019.3 |
| 20260831172520 | 25 | 114 | 3.2 | 9.7 | 0.00 | 0.00 | 0.00 | 44 | 1019.4 |
| 20260831172020 | 25 | 118 | 4.8 | 9.7 | 0.00 | 0.00 | 0.00 | 45 | 1019.4 |
| 20260831171540 | 24 | 116 | 1.6 | 4.8 | 0.00 | 0.00 | 0.00 | 46 | 1019.5 |
| 20260831171019 | 24 | 349 | 0.0 | 4.8 | 0.00 | 0.00 | 0.00 | 49 | 1019.6 |
| 20260831170519 | 24 | 232 | 3.2 | 6.4 | 0.00 | 0.00 | 0.00 | 49 | 1019.6 |
| 20260831170019 | 24 | 119 | 1.6 | 3.2 | 0.00 | 0.00 | 0.00 | 49 | 1019.6 |
| 20260831165520 | 24 | 73 | 1.6 | 4.8 | 0.00 | 0.00 | 0.00 | 43 | 1019.7 |
| 20260831165040 | 24 | 353 | 1.6 | 4.8 | 0.00 | 0.00 | 0.00 | 49 | 1019.8 |
| 20260831164520 | 24 | 62 | 0.0 | 1.6 | 0.00 | 0.00 | 0.00 | 47 | 1019.8 |
| 20260831164020 | 23 | 112 | 0.0 | 1.6 | 0.00 | 0.00 | 0.00 | 48 | 1019.8 |
| 20260831163520 | 24 | 87 | 0.0 | 1.6 | 0.00 | 0.00 | 0.00 | 47 | 1019.7 |
| 20260831163019 | 23 | 357 | 0.0 | 3.2 | 0.00 | 0.00 | 0.00 | 50 | 1019.8 |
| 20260831162519 | 23 | 55 | 1.6 | 4.8 | 0.00 | 0.00 | 0.00 | 45 | 1020.0 |
| 20260831162039 | 23 | 65 | 1.6 | 4.8 | 0.00 | 0.00 | 0.00 | 46 | 1020.0 |
| 20260831161521 | 23 | 314 | 0.0 | 3.2 | 0.00 | 0.00 | 0.00 | 47 | 1020.0 |
| 20260831161020 | 24 | 308 | 1.6 | 3.2 | 0.00 | 0.00 | 0.00 | 44 | 1020.0 |
| 20260831160521 | 24 | 34 | 1.6 | 4.8 | 0.00 | 0.00 | 0.00 | 47 | 1020.1 |
| 20260831160020 | 24 | 245 | 1.6 | 4.8 | 0.00 | 0.00 | 0.00 | 48 | 1020.2 |
| 20260831155520 | 23 | 217 | 1.6 | 4.8 | 0.00 | 0.00 | 0.00 | 47 | 1020.2 |
| 20260831155019 | 23 | 253 | 1.6 | 4.8 | 0.00 | 0.00 | 0.00 | 49 | 1020.2 |
| 20260831154519 | 23 | 93 | 3.2 | 12.9 | 0.00 | 0.00 | 0.00 | 47 | 1020.2 |
| 20260831154019 | 23 | 92 | 4.8 | 12.9 | 0.00 | 0.00 | 0.00 | 49 | 1020.3 |
| 20260831153519 | 23 | 119 | 3.2 | 4.8 | 0.00 | 0.00 | 0.00 | 54 | 1020.3 |
| 20260831153021 | 23 | 240 | 1.6 | 1.6 | 0.00 | 0.00 | 0.00 | 52 | 1020.4 |
| 20260831152520 | 23 | 140 | 1.6 | 6.4 | 0.00 | 0.00 | 0.00 | 52 | 1020.4 |
| 20260831152020 | 23 | 115 | 4.8 | 12.9 | 0.00 | 0.00 | 0.00 | 50 | 1020.5 |
| 20260831151520 | 23 | 89 | 3.2 | 6.4 | 0.00 | 0.00 | 0.00 | 52 | 1020.5 |
| 20260831151020 | 23 | 51 | 1.6 | 6.4 | 0.00 | 0.00 | 0.00 | 51 | 1020.5 |
| 20260831150520 | 23 | 150 | 1.6 | 6.4 | 0.00 | 0.00 | 0.00 | 50 | 1020.3 |
| 20260831150019 | 23 | 150 | 3.2 | 6.4 | 0.00 | 0.00 | 0.00 | 52 | 1020.5 |
| 20260831145519 | 22 | 174 | 1.6 | 4.8 | 0.00 | 0.00 | 0.00 | 58 | 1020.5 |
| 20260831145019 | 22 | 160 | 1.6 | 1.6 | 0.00 | 0.00 | 0.00 | 53 | 1020.4 |
| 20260831144521 | 22 | 160 | 1.6 | 3.2 | 0.00 | 0.00 | 0.00 | 53 | 1020.6 |
| 20260831144020 | 22 | 93 | 1.6 | 4.8 | 0.00 | 0.00 | 0.00 | 52 | 1020.7 |
| 20260831143540 | 22 | 75 | 0.0 | 4.8 | 0.00 | 0.00 | 0.00 | 51 | 1020.7 |
| 20260831143100 | 22 | 66 | 1.6 | 4.8 | 0.00 | 0.00 | 0.00 | 56 | 1020.7 |
| 20260831142520 | 22 | 140 | 0.0 | 3.2 | 0.00 | 0.00 | 0.00 | 50 | 1020.5 |
| 20260831142020 | 22 | 158 | 1.6 | 6.4 | 0.00 | 0.00 | 0.00 | 50 | 1020.5 |
| 20260831141519 | 22 | 114 | 3.2 | 6.4 | 0.00 | 0.00 | 0.00 | 51 | 1020.4 |
| 20260831141024 | 22 | 130 | 1.6 | 6.4 | 0.00 | 0.00 | 0.00 | 55 | 1020.4 |
| 20260831140519 | 22 | 124 | 3.2 | 9.7 | 0.00 | 0.00 | 0.00 | 54 | 1020.4 |
| 20260831140021 | 22 | 108 | 3.2 | 9.7 | 0.00 | 0.00 | 0.00 | 56 | 1020.4 |
| 20260831135520 | 22 | 94 | 3.2 | 9.7 | 0.00 | 0.00 | 0.00 | 51 | 1020.5 |
| 20260831135020 | 22 | 112 | 1.6 | 6.4 | 0.00 | 0.00 | 0.00 | 56 | 1020.6 |
| 20260831134520 | 21 | 94 | 3.2 | 9.7 | 0.00 | 0.00 | 0.00 | 56 | 1020.4 |
| 20260831134059 | 21 | 118 | 4.8 | 11.3 | 0.00 | 0.00 | 0.00 | 58 | 1020.5 |
| 20260831133519 | 21 | 128 | 1.6 | 4.8 | 0.00 | 0.00 | 0.00 | 63 | 1020.4 |
| 20260831133019 | 21 | 92 | 1.6 | 3.2 | 0.00 | 0.00 | 0.00 | 62 | 1020.4 |
| 20260831132520 | 21 | 343 | 0.0 | 3.2 | 0.00 | 0.00 | 0.00 | 60 | 1020.4 |
| 20260831132019 | 21 | 82 | 0.0 | 3.2 | 0.00 | 0.00 | 0.00 | 62 | 1020.4 |
| 20260831131520 | 20 | 85 | 1.6 | 3.2 | 0.00 | 0.00 | 0.00 | 61 | 1020.4 |
| 20260831131020 | 20 | 90 | 3.2 | 9.7 | 0.00 | 0.00 | 0.00 | 63 | 1020.5 |
| 20260831130520 | 20 | 86 | 3.2 | 6.4 | 0.00 | 0.00 | 0.00 | 63 | 1020.4 |
| 20260831130020 | 20 | 75 | 3.2 | 6.4 | 0.00 | 0.00 | 0.00 | 65 | 1020.3 |
| 20260831125520 | 20 | 10 | 0.0 | 3.2 | 0.00 | 0.00 | 0.00 | 66 | 1020.3 |
| 20260831125100 | 20 | 15 | 0.0 | 3.2 | 0.00 | 0.00 | 0.00 | 64 | 1020.4 |
| 20260831124519 | 20 | 67 | 3.2 | 6.4 | 0.00 | 0.00 | 0.00 | 64 | 1020.5 |
| 20260831124019 | 20 | 101 | 3.2 | 11.3 | 0.00 | 0.00 | 0.00 | 66 | 1020.5 |
| 20260831123519 | 20 | 111 | 3.2 | 6.4 | 0.00 | 0.00 | 0.00 | 68 | 1020.4 |
| 20260831123021 | 20 | 110 | 4.8 | 12.9 | 0.00 | 0.00 | 0.00 | 68 | 1020.2 |
| 20260831122520 | 19 | 82 | 3.2 | 11.3 | 0.00 | 0.00 | 0.00 | 71 | 1020.3 |
| 20260831122040 | 19 | 53 | 1.6 | 4.8 | 0.00 | 0.00 | 0.00 | 75 | 1020.2 |
| 20260831121520 | 18 | 11 | 0.0 | 3.2 | 0.00 | 0.00 | 0.00 | 76 | 1020.2 |
| 20260831121020 | 18 | 52 | 0.0 | 3.2 | 0.00 | 0.00 | 0.00 | 76 | 1020.2 |
| 20260831120519 | 18 | 12 | 0.0 | 1.6 | 0.00 | 0.00 | 0.00 | 78 | 1020.2 |
| 20260831120019 | 18 | 45 | 0.0 | 1.6 | 0.00 | 0.00 | 0.00 | 79 | 1020.1 |
| 20260831115519 | 18 | 68 | 0.0 | 1.6 | 0.00 | 0.00 | 0.00 | 81 | 1020.0 |
| 20260831115019 | 18 | 68 | 0.0 | 1.6 | 0.00 | 0.00 | 0.00 | 82 | 1019.9 |
| 20260831114520 | 18 | 68 | 0.0 | 1.6 | 0.00 | 0.00 | 0.00 | 83 | 1020.0 |
| 20260831114020 | 18 | 81 | 0.0 | 3.2 | 0.00 | 0.00 | 0.00 | 85 | 1019.9 |
| 20260831113520 | 17 | 167 | 0.0 | 1.6 | 0.00 | 0.00 | 0.00 | 89 | 1019.9 |
| 20260831113021 | 17 | 167 | 1.6 | 1.6 | 0.00 | 0.00 | 0.00 | 93 | 1019.9 |
| 20260831112520 | 16 | 0.0 | 0.0 | 0.00 | 0.00 | 0.00 | 96 | 1019.7 | |
| 20260831112019 | 15 | 0.0 | 0.0 | 0.00 | 0.00 | 0.00 | 97 | 1019.8 | |
| 20260831111519 | 15 | 0.0 | 0.0 | 0.00 | 0.00 | 0.00 | 99 | 1019.8 | |
| 20260831111019 | 15 | 0.0 | 0.0 | 0.00 | 0.00 | 0.00 | 99 | 1019.6 | |
| 20260831110539 | 15 | 0.0 | 0.0 | 0.00 | 0.00 | 0.00 | 99 | 1019.7 | |
| 20260831110020 | 14 | 0.0 | 0.0 | 0.00 | 0.00 | 0.00 | 98 | 1019.6 | |
| 20260831105520 | 14 | 0.0 | 0.0 | 0.00 | 0.00 | 0.00 | 98 | 1019.5 | |
| 20260831105040 | 14 | 0.0 | 0.0 | 0.00 | 0.00 | 0.00 | 98 | 1019.6 | |
| 20260831104520 | 14 | 0.0 | 0.0 | 0.00 | 0.00 | 0.00 | 98 | 1019.5 | |
| 20260831104019 | 14 | 0.0 | 0.0 | 0.00 | 0.00 | 0.00 | 98 | 1019.6 | |
| 20260831103519 | 14 | 0.0 | 0.0 | 0.00 | 0.00 | 0.00 | 98 | 1019.6 | |
| 20260831103019 | 14 | 0.0 | 0.0 | 0.00 | 0.00 | 0.00 | 98 | 1019.3 | |
| 20260831102519 | 14 | 0.0 | 0.0 | 0.00 | 0.00 | 0.00 | 98 | 1019.4 | |
| 20260831102018 | 14 | 0.0 | 0.0 | 0.00 | 0.00 | 0.00 | 97 | 1019.3 | |
| 20260831101520 | 14 | 0.0 | 0.0 | 0.00 | 0.00 | 0.00 | 97 | 1019.2 | |
| 20260831101020 | 14 | 0.0 | 0.0 | 0.00 | 0.00 | 0.00 | 97 | 1019.2 | |
| 20260831100520 | 15 | 0.0 | 0.0 | 0.00 | 0.00 | 0.00 | 97 | 1019.1 | |
| 20260831100019 | 15 | 0.0 | 0.0 | 0.00 | 0.00 | 0.00 | 98 | 1019.1 | |
| 20260831095519 | 15 | 0.0 | 0.0 | 0.00 | 0.00 | 0.00 | 97 | 1019.0 | |
| 20260831095019 | 15 | 0.0 | 0.0 | 0.00 | 0.00 | 0.00 | 97 | 1019.0 | |
| 20260831094519 | 15 | 0.0 | 0.0 | 0.00 | 0.00 | 0.00 | 97 | 1018.9 | |
| 20260831094018 | 15 | 0.0 | 0.0 | 0.00 | 0.00 | 0.00 | 97 | 1018.9 | |
| 20260831093601 | 15 | 0.0 | 0.0 | 0.00 | 0.00 | 0.00 | 97 | 1018.8 | |
| 20260831093020 | 15 | 0.0 | 0.0 | 0.00 | 0.00 | 0.00 | 96 | 1018.7 | |
| 20260831092520 | 15 | 0.0 | 0.0 | 0.00 | 0.00 | 0.00 | 96 | 1018.7 | |
| 20260831092019 | 15 | 0.0 | 0.0 | 0.00 | 0.00 | 0.00 | 96 | 1018.6 | |
| 20260831091520 | 15 | 0.0 | 0.0 | 0.00 | 0.00 | 0.00 | 96 | 1018.5 | |
| 20260831091019 | 15 | 0.0 | 0.0 | 0.00 | 0.00 | 0.00 | 96 | 1018.5 | |
| 20260831090519 | 15 | 0.0 | 0.0 | 0.00 | 0.00 | 0.00 | 95 | 1018.5 | |
| 20260831090019 | 15 | 0.0 | 0.0 | 0.00 | 0.00 | 0.00 | 95 | 1018.5 | |
| 20260831085521 | 16 | 0.0 | 0.0 | 0.00 | 0.00 | 0.00 | 95 | 1018.4 | |
| 20260831085020 | 16 | 0.0 | 0.0 | 0.00 | 0.00 | 0.00 | 95 | 1018.1 | |
| 20260831084520 | 16 | 0.0 | 0.0 | 0.00 | 0.00 | 0.00 | 95 | 1018.2 | |
| 20260831084020 | 16 | 0.0 | 0.0 | 0.00 | 0.00 | 0.00 | 95 | 1018.1 | |
| 20260831083520 | 16 | 0.0 | 0.0 | 0.00 | 0.00 | 0.00 | 95 | 1018.2 | |
| 20260831083019 | 16 | 0.0 | 0.0 | 0.00 | 0.00 | 0.00 | 94 | 1018.2 | |
| 20260831082540 | 16 | 0.0 | 0.0 | 0.00 | 0.00 | 0.00 | 94 | 1018.1 | |
| 20260831082039 | 16 | 0.0 | 0.0 | 0.00 | 0.00 | 0.00 | 94 | 1018.0 | |
| 20260831081521 | 16 | 0.0 | 0.0 | 0.00 | 0.00 | 0.00 | 93 | 1018.0 | |
| 20260831081020 | 16 | 0.0 | 0.0 | 0.00 | 0.00 | 0.00 | 93 | 1018.0 | |
| 20260831080520 | 16 | 0.0 | 0.0 | 0.00 | 0.00 | 0.00 | 93 | 1018.0 | |
| 20260831080040 | 16 | 0.0 | 0.0 | 0.00 | 0.00 | 0.00 | 93 | 1017.8 | |
| 20260831075520 | 16 | 0.0 | 0.0 | 0.00 | 0.00 | 0.00 | 92 | 1017.7 | |
| 20260831075020 | 16 | 0.0 | 0.0 | 0.00 | 0.00 | 0.00 | 91 | 1017.7 | |
| 20260831074520 | 16 | 0.0 | 0.0 | 0.00 | 0.00 | 0.00 | 91 | 1017.6 | |
| 20260831074019 | 17 | 0.0 | 0.0 | 0.00 | 0.00 | 0.00 | 91 | 1017.6 | |
| 20260831073519 | 17 | 0.0 | 0.0 | 0.00 | 0.00 | 0.00 | 91 | 1017.6 | |
| 20260831073023 | 17 | 0.0 | 0.0 | 0.00 | 0.00 | 0.00 | 90 | 1017.6 | |
| 20260831072540 | 17 | 0.0 | 0.0 | 0.00 | 0.00 | 0.00 | 90 | 1017.5 | |
| 20260831072020 | 17 | 0.0 | 0.0 | 0.00 | 0.00 | 0.00 | 89 | 1017.5 | |
| 20260831071520 | 17 | 0.0 | 0.0 | 0.00 | 0.00 | 0.00 | 89 | 1017.5 | |
| 20260831071019 | 17 | 0.0 | 0.0 | 0.00 | 0.00 | 0.00 | 88 | 1017.6 | |
| 20260831070519 | 17 | 0.0 | 0.0 | 0.00 | 0.00 | 0.00 | 87 | 1017.5 | |
| 20260831070019 | 17 | 0.0 | 0.0 | 0.00 | 0.00 | 0.00 | 87 | 1017.5 | |
| 20260831065519 | 18 | 0.0 | 0.0 | 0.00 | 0.00 | 0.00 | 86 | 1017.7 | |
| 20260831065020 | 18 | 0.0 | 0.0 | 0.00 | 0.00 | 0.00 | 86 | 1017.7 | |
| 20260831064520 | 18 | 168 | 0.0 | 1.6 | 0.00 | 0.00 | 0.00 | 86 | 1017.6 |
| 20260831064020 | 18 | 168 | 0.0 | 1.6 | 0.00 | 0.00 | 0.00 | 86 | 1017.6 |
| 20260831063520 | 18 | 0.0 | 0.0 | 0.00 | 0.00 | 0.00 | 87 | 1017.6 | |
| 20260831063021 | 18 | 0.0 | 0.0 | 0.00 | 0.00 | 0.00 | 87 | 1017.6 | |
| 20260831062519 | 18 | 0.0 | 0.0 | 0.00 | 0.00 | 0.00 | 86 | 1017.4 | |
| 20260831062019 | 18 | 0.0 | 0.0 | 0.00 | 0.00 | 0.00 | 86 | 1017.4 | |
| 20260831061521 | 18 | 0.0 | 0.0 | 0.00 | 0.00 | 0.00 | 85 | 1017.5 | |
| 20260831061020 | 18 | 0.0 | 0.0 | 0.00 | 0.00 | 0.00 | 85 | 1017.4 | |
| 20260831060520 | 18 | 0.0 | 0.0 | 0.00 | 0.00 | 0.00 | 85 | 1017.3 | |
| 20260831060020 | 18 | 0.0 | 0.0 | 0.00 | 0.00 | 0.00 | 84 | 1017.3 | |
| 20260831055519 | 18 | 0.0 | 0.0 | 0.00 | 0.00 | 0.00 | 84 | 1017.4 | |
| 20260831055020 | 18 | 0.0 | 0.0 | 0.00 | 0.00 | 0.00 | 83 | 1017.2 | |
| 20260831054519 | 18 | 0.0 | 0.0 | 0.00 | 0.00 | 0.00 | 83 | 1017.3 | |
| 20260831054019 | 18 | 0.0 | 0.0 | 0.00 | 0.00 | 0.00 | 83 | 1017.3 | |
| 20260831053519 | 19 | 0.0 | 0.0 | 0.00 | 0.00 | 0.00 | 82 | 1017.2 | |
| 20260831053021 | 19 | 0.0 | 0.0 | 0.00 | 0.00 | 0.00 | 82 | 1017.1 | |
| 20260831052520 | 19 | 0.0 | 0.0 | 0.00 | 0.00 | 0.00 | 81 | 1017.1 | |
| 20260831052020 | 19 | 0.0 | 0.0 | 0.00 | 0.00 | 0.00 | 81 | 1017.0 | |
| 20260831051520 | 20 | 0.0 | 0.0 | 0.00 | 0.00 | 0.00 | 80 | 1016.9 | |
| 20260831051020 | 20 | 0.0 | 0.0 | 0.00 | 0.00 | 0.00 | 80 | 1016.9 | |
| 20260831050519 | 20 | 0.0 | 0.0 | 0.00 | 0.00 | 0.00 | 79 | 1016.9 | |
| 20260831050019 | 20 | 0.0 | 1.6 | 0.00 | 0.00 | 0.00 | 78 | 1017.0 | |
| 20260831045519 | 20 | 168 | 0.0 | 1.6 | 0.00 | 0.00 | 0.00 | 77 | 1017.0 |
| 20260831045018 | 20 | 0.0 | 0.0 | 0.00 | 0.00 | 0.00 | 77 | 1016.9 | |
| 20260831044519 | 21 | 168 | 0.0 | 1.6 | 0.00 | 0.00 | 0.00 | 77 | 1016.8 |
| 20260831044020 | 21 | 168 | 0.0 | 1.6 | 0.00 | 0.00 | 0.00 | 77 | 1016.7 |
| 20260831043520 | 21 | 168 | 0.0 | 1.6 | 0.00 | 0.00 | 0.00 | 78 | 1016.6 |
| 20260831043020 | 20 | 168 | 0.0 | 1.6 | 0.00 | 0.00 | 0.00 | 78 | 1016.8 |
| 20260831042520 | 20 | 168 | 0.0 | 1.6 | 0.00 | 0.00 | 0.00 | 79 | 1016.7 |
| 20260831042200 | 21 | 0.0 | 1.6 | 0.00 | 0.00 | 0.00 | 78 | 1016.7 | |
| 20260831041519 | 21 | 0.0 | 0.0 | 0.00 | 0.00 | 0.00 | 78 | 1016.8 | |
| 20260831041019 | 21 | 0.0 | 0.0 | 0.00 | 0.00 | 0.00 | 76 | 1016.7 | |
| 20260831040519 | 21 | 0.0 | 0.0 | 0.00 | 0.00 | 0.00 | 77 | 1016.7 | |
| 20260831040020 | 21 | 0.0 | 1.6 | 0.00 | 0.00 | 0.00 | 77 | 1016.7 | |
| 20260831035520 | 21 | 168 | 0.0 | 1.6 | 0.00 | 0.00 | 0.00 | 77 | 1016.6 |
| 20260831035021 | 21 | 0.0 | 0.0 | 0.00 | 0.00 | 0.00 | 77 | 1016.6 | |
| 20260831034520 | 21 | 0.0 | 0.0 | 0.00 | 0.00 | 0.00 | 77 | 1016.6 | |
| 20260831034020 | 21 | 177 | 0.0 | 1.6 | 0.00 | 0.00 | 0.00 | 79 | 1016.6 |
| 20260831033519 | 21 | 184 | 0.0 | 1.6 | 0.00 | 0.00 | 0.00 | 79 | 1016.6 |
| 20260831033019 | 21 | 200 | 0.0 | 1.6 | 0.00 | 0.00 | 0.00 | 80 | 1016.6 |
| 20260831032519 | 21 | 225 | 0.0 | 1.6 | 0.00 | 0.00 | 0.00 | 80 | 1016.7 |
| 20260831032019 | 21 | 224 | 0.0 | 1.6 | 0.00 | 0.00 | 0.00 | 80 | 1016.5 |
| 20260831031541 | 21 | 224 | 0.0 | 1.6 | 0.00 | 0.00 | 0.00 | 81 | 1016.6 |
| 20260831031018 | 21 | 242 | 0.0 | 1.6 | 0.00 | 0.00 | 0.00 | 81 | 1016.6 |
| 20260831030520 | 21 | 250 | 0.0 | 1.6 | 0.00 | 0.00 | 0.00 | 80 | 1016.6 |
| 20260831030020 | 21 | 250 | 0.0 | 1.6 | 0.00 | 0.00 | 0.00 | 79 | 1016.6 |
| 20260831025520 | 21 | 252 | 0.0 | 4.8 | 0.00 | 0.00 | 0.00 | 80 | 1016.4 |
| 20260831025019 | 21 | 0.0 | 1.6 | 0.00 | 0.00 | 0.00 | 79 | 1016.6 | |
| 20260831024519 | 21 | 0.0 | 1.6 | 0.00 | 0.00 | 0.00 | 79 | 1016.7 | |
| 20260831024019 | 21 | 0.0 | 0.0 | 0.00 | 0.00 | 0.00 | 79 | 1016.5 | |
| 20260831023519 | 21 | 0.0 | 1.6 | 0.00 | 0.00 | 0.00 | 78 | 1016.6 | |
| 20260831023018 | 22 | 280 | 0.0 | 3.2 | 0.00 | 0.00 | 0.00 | 78 | 1016.5 |
| 20260831022538 | 22 | 279 | 0.0 | 3.2 | 0.00 | 0.00 | 0.00 | 76 | 1016.6 |
| 20260831022040 | 22 | 227 | 0.0 | 3.2 | 0.00 | 0.00 | 0.00 | 76 | 1016.6 |
| 20260831021520 | 22 | 148 | 0.0 | 1.6 | 0.00 | 0.00 | 0.00 | 75 | 1016.6 |
| 20260831021019 | 22 | 0.0 | 1.6 | 0.00 | 0.00 | 0.00 | 74 | 1016.5 | |
| 20260831020519 | 22 | 158 | 0.0 | 1.6 | 0.00 | 0.00 | 0.00 | 74 | 1016.6 |
| 20260831020021 | 22 | 0.0 | 1.6 | 0.00 | 0.00 | 0.00 | 73 | 1016.5 | |
| 20260831015521 | 22 | 234 | 0.0 | 1.6 | 0.00 | 0.00 | 0.00 | 72 | 1016.4 |
| 20260831015041 | 22 | 202 | 0.0 | 3.2 | 0.00 | 0.00 | 0.00 | 71 | 1016.4 |
| 20260831014520 | 22 | 238 | 1.6 | 3.2 | 0.00 | 0.00 | 0.00 | 71 | 1016.4 |
| 20260831014020 | 22 | 10 | 0.0 | 3.2 | 0.00 | 0.00 | 0.00 | 71 | 1016.4 |
| 20260831013601 | 22 | 282 | 1.6 | 4.8 | 0.00 | 0.00 | 0.00 | 71 | 1016.2 |
| 20260831013020 | 22 | 177 | 1.6 | 4.8 | 0.00 | 0.00 | 0.00 | 71 | 1016.2 |
| 20260831012519 | 22 | 134 | 1.6 | 6.4 | 0.00 | 0.00 | 0.00 | 70 | 1016.2 |
| 20260831012019 | 22 | 299 | 0.0 | 4.8 | 0.00 | 0.00 | 0.00 | 70 | 1016.0 |
| 20260831011521 | 23 | 293 | 0.0 | 1.6 | 0.00 | 0.00 | 0.00 | 70 | 1016.0 |
| 20260831011020 | 23 | 244 | 0.0 | 3.2 | 0.00 | 0.00 | 0.00 | 69 | 1016.1 |
| 20260831010519 | 23 | 127 | 0.0 | 3.2 | 0.00 | 0.00 | 0.00 | 69 | 1016.1 |
| 20260831010019 | 23 | 268 | 1.6 | 6.4 | 0.00 | 0.00 | 0.00 | 68 | 1016.1 |
| 20260831005519 | 23 | 194 | 1.6 | 6.4 | 0.00 | 0.00 | 0.00 | 69 | 1016.0 |
| 20260831005021 | 23 | 334 | 0.0 | 6.4 | 0.00 | 0.00 | 0.00 | 68 | 1015.9 |
| 20260831004521 | 23 | 301 | 1.6 | 4.8 | 0.00 | 0.00 | 0.00 | 67 | 1015.9 |
| 20260831004040 | 23 | 132 | 1.6 | 4.8 | 0.00 | 0.00 | 0.00 | 67 | 1015.9 |
| 20260831003540 | 23 | 226 | 1.6 | 6.4 | 0.00 | 0.00 | 0.00 | 66 | 1015.8 |
| 20260831003020 | 23 | 183 | 1.6 | 6.4 | 0.00 | 0.00 | 0.00 | 66 | 1015.8 |
| 20260831002520 | 23 | 182 | 1.6 | 9.7 | 0.00 | 0.00 | 0.00 | 66 | 1015.8 |
| 20260831002020 | 23 | 224 | 3.2 | 6.4 | 0.00 | 0.00 | 0.00 | 65 | 1015.7 |
| 20260831001539 | 23 | 187 | 1.6 | 11.3 | 0.00 | 0.00 | 0.00 | 65 | 1015.5 |
| 20260831001101 | 23 | 186 | 1.6 | 11.3 | 0.00 | 0.00 | 0.00 | 65 | 1015.7 |
| 20260831000521 | 23 | 240 | 1.6 | 4.8 | 0.00 | 0.00 | 0.00 | 64 | 1015.6 |
| 20260831000020 | 23 | 198 | 1.6 | 4.8 | 0.00 | 0.00 | 0.00 | 64 | 1015.5 |
| 20260830233019 | 23 | 144 | 1.6 | 4.8 | 0.00 | 0.00 | 0.00 | 62 | 1015.4 |
| 20260830232519 | 23 | 287 | 1.6 | 12.9 | 0.00 | 0.00 | 0.00 | 62 | 1015.3 |